Showing default

UMBRA-07, 58297

Orbit data source: Space-Track

UMBRA-07, 58297 is a payload satellite owned by Umbra Labs (US) in SSO that was launched on Sat, 11 Nov 2023 UTC via an FALCON 9 launch vehicle from the Air Force Western Test Range (AFWTR). Payload-class satellites include a variety of spacecraft equipped with specific instruments for various scientific and technological missions. These include communications satellites like Starlink; space stations such as the ISS; scientific satellites like the Hubble; Earth observation satellites from companies like Planet Labs, Umbra, and HawkEye 360; GPS; miniature CubeSats for education and research; and military/defense satellites.

Loading next visibility...
Identifier
58297, 2023-174AT
Orbit
SSO
Country
Flag of USUS
Related business
Manufacturer
Umbra Labs
Mission
Operational Commercial Radar Imaging
Bus & Motor
ESPASAT?, Unknown motor
Mass
84 kg wet, 79 kg dry
Launch date (UTC)
2023-11-11 (2 years ago)
Launch vehicle
FALCON 9
Launch site
Air Force Western Test Range (AFWTR)
Object type
Payload
Rocket body
Debris
Shape & HBR
Box + 2 Pan + 1 Dish, 2.0 m
Radar Cross Section
6.513 m², Large (>1 m²)

Expand to show TLE details & history
Last TLE update: 14 hours ago

TLE from 14 hours ago
0 UMBRA-07
1 58297U 23174AT  25309.63114354  .00012408  00000-0  90855-3 0  9999
2 58297  97.4120   9.2703 0005534 117.0994 243.0798 15.03685318109750
Epoch: 2025-11-05T15:08Z
TLE epoch observation values (Epoch: 2025-11-05T15:08:50.801Z)
Latitude
0.00002°
Longitude
96.95758°
Altitude
560.351 km
Speed
7.58 km/s
True Right ascension
00h 37m 04s
True Declination
0° 00' 00"
Sunlit
Object was in full shadow at epoch
Visualization orbit readout
Latitude
Unknown
Longitude
Unknown
Altitude
Unknown
Speed
Unknown
Apparent Right ascension
Unknown
Apparent Declination
Unknown
Sunlit
N/A
Visualization observer readout
Local Sidereal Time
00:42:58
Azimuth
Unknown
Elevation
Unknown
Doppler factor
Unknown
Orbital elements
Apogee altitude
556.367 km
Perigee altitude
548.697 km
Semi-major axis
6,930.669 km
Eccentricity
0.00055
Inclination
97.412°
RAAN
9.2703°
Arg. of periapsis
117.0994°
True anomaly
243.02327°
Mean anomaly
243.0798°
Eccentric anomaly
243.05154°
Mean motion
3.76167 °/min
Orbital period
95.7 mins
BSTAR
0.00090855
Loading maneuver chart data...
Computing Atmospheric mass density...
Loading historical data...
Loading historical data...
Loading historical data...
Loading historical data...
Loading historical data...
Loading historical data...
Loading historical data...

Documentation

Showing up to 5 results
|